Location: Eu�erthal
(49.2428°N, 7.9718°E)
Time: 05:45:07
(UTC+00:00)

Daily predictions for brighter satellites

Satellite Brightness Start Highest point End
(mag) Time Altitude Azimuth Time Altitude Azimuth Time Altitude Azimuth
USA 267 4.2 00:00:14 10° ENE 00:06:24 46° N 00:12:34 10° WNW
Cosmos 1025 Rocket 4.0 00:03:16 10° NNW 00:06:21 38° NW 00:06:21 38° NW
Okean 1 Rocket 3.6 00:09:30 53° ENE 00:09:30 53° ENE 00:13:14 10° NNE
SJ 16-02 2.2 00:09:53 44° ENE 00:09:53 44° ENE 00:13:25 10° NNE
Okean 2 Rocket 3.8 00:10:41 47° WNW 00:10:41 47° WNW 00:14:40 10° N
SL-16 R/B 2.0 00:07:44 10° NNW 00:13:27 80° WSW 00:13:48 76° SSW
Cosmos 2263 Rocket 3.9 00:14:58 18° ESE 00:15:44 19° E 00:19:30 10° ENE
Meteor 2-13 Rocket 4.4 00:10:31 10° NNW 00:16:35 68° W 00:17:19 62° SW
SL-14 R/B 4.5 00:13:51 10° N 00:17:08 36° ENE 00:17:08 36° ENE
Cosmos 1428 Rocket 4.4 00:11:27 10° N 00:17:47 85° W 00:18:54 63° S
MOZ.5/SAFIR/RUBIN 5/SL-8 4.3 00:22:13 47° E 00:22:53 52° ENE 00:27:29 10° N
Cosmos 1937 Rocket 4.5 00:27:08 35° ESE 00:27:37 35° ESE 00:32:26 10° NE
Cosmos 158 Rocket 3.9 00:24:18 10° NNW 00:29:43 80° WSW 00:29:59 77° SSW
Cosmos 990 Rocket 4.3 00:29:47 52° ESE 00:30:00 53° ESE 00:35:02 10° NNE
Cosmos 2297 Rocket 2.6 00:28:54 46° W 00:30:05 54° NW 00:35:39 10° NNE
ADEOS II 4.3 00:28:12 10° NE 00:31:11 15° E 00:33:36 12° ESE
Cosmos 1455 Rocket 4.2 00:35:30 34° E 00:35:48 35° E 00:39:51 10° NNE
Cosmos 1092 Rocket 4.4 00:29:57 10° NNW 00:35:51 46° W 00:36:34 44° WSW
Cosmos 2112 Rocket 3.8 00:31:17 10° NNW 00:36:32 82° WSW 00:36:46 79° SSW
USA 229 DEB 3.8 00:36:45 48° SSE 00:37:55 55° ESE 00:44:35 10° NE
USA 229 3.8 00:36:53 48° SSE 00:38:02 54° ESE 00:44:40 10° NE
UNK 4.4 00:39:00 44° ESE 00:39:58 52° ENE 00:44:32 10° N
Cosmos 2237 Rocket 3.9 00:38:16 10° NW 00:41:12 19° W 00:41:12 19° W
Cosmos 2219 4.1 00:41:47 32° W 00:43:30 40° NW 00:48:47 10° NNE
Meteor 1-15 Rocket 4.2 00:43:07 58° WSW 00:43:54 65° WNW 00:49:27 10° N
Cosmos 1898 Rocket 3.5 00:43:57 61° SE 00:44:25 64° ESE 00:49:35 10° NNE
Cosmos 1892 Rocket 3.6 00:43:19 10° N 00:47:48 75° E 00:47:50 75° E
Meteor 1-24 Rocket 3.4 00:42:54 10° NNW 00:48:21 88° W 00:49:07 67° S
NOSS 3-1 (A) 3.7 00:48:36 42° SE 00:49:21 45° ESE 00:55:20 10° NE
Meteor 1-29 4.1 00:46:37 10° N 00:49:04 42° N 00:49:04 42° N
Cosmos 1674 4.4 00:47:56 10° NNW 00:49:53 24° NW 00:49:53 24° NW
Cosmos 1680 Rocket 3.7 00:46:34 10° NNW 00:51:28 54° W 00:51:28 54° W
IRAS Rocket 4.3 00:49:56 44° SE 00:51:47 75° ENE 00:57:24 10° NNW
Spot 1 4.0 00:52:54 73° NNW 00:52:54 73° NNW 00:56:37 10° NNW
Cosmos 1603 4.0 00:48:19 10° NNW 00:54:03 67° ENE 00:57:17 26° SE
Cosmos 1461 3.2 00:55:29 63° WNW 00:55:41 64° NW 01:00:17 10° NE
DELTA 2 DEB (DPAF) 4.0 01:05:03 76° WSW 01:05:03 76° WSW 01:09:32 10° NNW
CZ-2D R/B 2.4 01:01:02 10° NNE 01:06:31 65° ESE 01:08:00 47° SSE
Cosmos 1340 Rocket 3.2 01:07:08 53° E 01:07:08 53° E 01:10:59 10° NNE
Cosmos 1758 3.8 01:08:43 49° ESE 01:08:55 50° E 01:12:49 10° NNE
Cosmos 1766 4.2 01:11:18 38° NW 01:11:18 38° NW 01:14:30 10° N
SL-16 R/B 2.4 01:09:25 42° S 01:11:41 80° WSW 01:17:59 10° NNW
Timation 1 Rocket 4.3 01:10:12 50° S 01:11:46 75° ESE 01:17:44 10° NNE
Cosmos 1943 3.3 01:06:59 10° NNW 01:12:39 76° ENE 01:16:10 24° SE
Cosmos 1733 4.0 01:14:34 41° NW 01:14:34 41° NW 01:17:48 10° N
Cosmos 1626 3.4 01:12:50 10° NNW 01:15:17 32° NW 01:15:17 32° NW
Cosmos 1655 Rocket 4.0 01:10:22 10° NNW 01:16:36 69° W 01:18:27 46° SSW
IKONOS-2 4.4 01:18:12 68° SSE 01:18:43 85° ENE 01:23:00 10° NNW
Cosmos 2292 Rocket 4.4 01:13:11 10° NNW 01:20:21 73° W 01:22:07 46° SSW
Cosmos 2227 Rocket 3.5 01:18:31 22° W 01:20:59 31° NW 01:26:00 10° NNE
Cosmos 1544 Rocket 3.6 01:22:37 58° SSE 01:23:22 73° E 01:27:50 10° NNE
IRS-1D 4.3 01:18:36 10° NNE 01:23:30 44° E 01:25:39 29° SSE
Cosmos 1470 2.6 01:24:19 85° SSW 01:24:25 89° WNW 01:28:26 10° N
Meteor 2-5 Rocket 4.4 01:19:32 10° NNW 01:24:35 36° W 01:25:04 35° WSW
Cosmos 1953 3.4 01:23:54 33° SE 01:24:54 38° E 01:28:41 10° NNE
NPP 3.6 01:19:55 10° NNE 01:25:21 78° ESE 01:27:04 45° S
Helios 1B rocket 4.0 01:22:27 10° N 01:25:43 23° WNW 01:25:58 23° WNW
Meteor 1-22 Rocket 4.3 01:25:04 47° WSW 01:26:13 58° WNW 01:31:34 10° N
Cosmos 2279 Rocket 4.5 01:29:43 36° WSW 01:31:35 46° WNW 01:37:33 10° N
AQUA 3.8 01:28:18 10° NNE 01:33:05 76° ESE 01:34:26 47° S
Resurs 1-4 Rocket 2.1 01:34:41 10° N 01:39:56 69° WNW 01:41:36 43° SW
Exosat Rocket 4.2 01:36:53 34° SSW 01:40:36 89° ESE 01:46:31 10° NNE
Cosmos 1602 Rocket 3.6 01:38:22 10° N 01:42:44 75° E 01:44:25 36° SSE
Cosmos 2098 Rocket 4.1 01:38:39 10° NNW 01:44:06 55° W 01:46:32 36° SSW
NOSS 2-3 (E) 3.7 01:44:49 50° SW 01:45:59 82° NW 01:51:15 10° NE
Cosmos 2227 4.2 01:44:00 40° SSW 01:46:13 87° WNW 01:52:02 10° NNE
SJ 16-02 3.0 01:46:52 21° WNW 01:48:00 23° NW 01:51:32 10° N
IDEFIX/ARIANE 42P 4.4 01:44:08 10° NE 01:48:25 25° E 01:52:40 10° SSE
Meteor 2-14 Rocket 4.4 01:42:28 10° N 01:48:35 89° E 01:52:41 22° S
USA 267 4.0 01:42:30 10° E 01:48:49 54° NNE 01:55:08 10° WNW
NOSS 3-1 (C) 3.8 01:48:09 30° WSW 01:50:59 57° NW 01:57:34 10° NE
Cosmos 1048 Rocket 4.0 01:50:48 10° NNW 01:55:59 84° ENE 02:01:12 10° SSE
SL-16 R/B 4.1 01:53:52 10° WNW 01:55:38 13° W 01:55:38 13° W
Cosmos 1908 4.2 01:56:15 24° SSE 01:58:08 42° E 02:01:52 10° NNE
Cosmos 2263 Rocket 2.1 01:56:40 36° SW 01:59:00 78° WNW 02:04:37 10° NNE
Cosmos 2298 Rocket 4.1 01:57:57 32° S 02:00:27 73° ESE 02:05:48 10° NNE
Cosmos 2228 4.5 01:59:31 14° SSE 02:02:51 34° E 02:06:51 10° NNE
Meteor 1-16 Rocket 4.4 02:01:57 24° S 02:05:20 70° E 02:10:58 10° NNE
Cosmos 372 Rocket 4.0 02:04:37 35° SW 02:06:53 76° WNW 02:12:10 10° NNE
Meteor 1-28 Rocket 3.4 02:06:34 20° SSE 02:09:04 71° ENE 02:12:53 10° N
Cosmos 1937 Rocket 4.3 02:07:18 27° WSW 02:09:33 40° WNW 02:14:33 10° NNE
COBE Rocket 4.1 02:08:33 36° SW 02:09:50 46° W 02:14:19 10° NNW
SL-08 R/B 3.4 02:05:26 13° SSE 02:09:56 83° ENE 02:14:54 10° NNW
NOSS 2-3 (D) 4.0 02:08:30 33° WSW 02:10:24 60° NW 02:15:39 10° NE
ADEOS II 2.0 02:06:18 10° NNE 02:11:37 86° WNW 02:14:32 27° SSW
Cosmos 1626 Rocket 4.0 02:08:00 10° NNW 02:12:05 42° W 02:13:02 36° SW
Cosmos 1455 Rocket 4.3 02:12:38 25° W 02:13:41 28° WNW 02:17:33 10° N
CZ-4B R/B 3.4 02:09:49 10° N 02:14:32 63° WNW 02:16:40 32° SW
Cosmos 2285 Rocket 4.0 02:10:59 25° SSW 02:14:55 80° ESE 02:21:15 10° NNE
Cosmos 1726 2.4 02:14:19 42° WSW 02:15:01 49° WNW 02:18:36 10° N
Cosmos 1900 4.4 02:10:00 10° NW 02:15:10 87° ENE 02:20:20 10° SE
ATLAS CENTAUR R/B 1.4 02:13:46 37° SSW 02:15:12 67° SE 02:19:06 10° NE
Cosmos 2297 Rocket 4.4 02:12:13 10° WNW 02:15:29 15° NNW 02:18:46 10° N
Cosmos 1553 Rocket 4.2 02:15:28 15° S 02:20:38 70° E 02:26:46 10° NNE
Cosmos 1844 Rocket 3.7 02:17:42 14° S 02:22:08 40° ESE 02:27:18 10° NE
ERS-2 4.4 02:20:01 10° ESE 02:23:07 27° ENE 02:26:14 10° N
Meteor 1-11 4.4 02:19:13 10° N 02:25:00 75° ENE 02:30:39 10° SSE
GEOS 3 Rocket 3.9 02:19:42 10° NE 02:25:04 63° NW 02:28:25 23° WSW
CBERS-1 4.2 02:23:17 10° N 02:28:19 57° WNW 02:31:10 25° SW
USA 229 DEB 4.3 02:24:11 17° WSW 02:29:02 47° NW 02:35:48 10° NE
USA 229 4.3 02:24:18 18° WSW 02:29:08 47° NW 02:35:53 10° NE
Cosmos 1745 Rocket 4.2 02:23:41 10° N 02:29:59 74° E 02:36:10 10° SSE
Cosmos 2084 3.5 02:28:47 29° SW 02:30:59 85° NW 02:35:28 10° NE
ARIANE 5 R/B 2.6 02:26:44 10° NNE 02:32:00 79° ESE 02:36:11 16° S
NOSS 8 (E) 4.2 02:32:47 36° SSW 02:33:52 69° SE 02:36:54 10° NE
Cosmos 1758 Rocket 3.5 02:30:41 10° NNW 02:34:58 63° W 02:38:14 17° S
ERS-1 4.4 02:32:08 10° NNE 02:37:08 88° ESE 02:41:01 17° SSW
SL-08 R/B 4.5 02:32:58 10° NNW 02:39:10 74° W 02:45:25 10° S
NOSS 3-1 (A) 4.1 02:36:02 18° WSW 02:40:13 48° NW 02:46:45 10° NE
Cosmos 494 Rocket 4.0 02:39:15 10° NNW 02:44:22 62° WSW 02:49:28 10° S
Cosmos 2150 Rocket 4.3 02:42:28 22° SW 02:45:45 56° WNW 02:50:58 10° NNE
CZ-2D R/B 3.6 02:41:49 10° N 02:46:08 24° WNW 02:49:19 15° WSW
Cosmos 2058 Rocket 4.0 02:42:29 10° SSE 02:46:46 48° E 02:51:03 10° NNE
H-2A R/B 2.3 02:43:50 10° SSE 02:47:54 68° ENE 02:51:59 10° N
Cosmos 1703 3.9 02:46:47 10° NNW 02:50:28 37° W 02:52:42 20° SSW
CZ-2C R/B 4.2 02:48:27 10° NE 02:52:24 28° E 02:56:24 10° SSE
S3M 4.1 02:46:05 10° S 02:52:28 87° E 02:58:54 10° N
Cosmos 1825 Rocket 3.7 02:49:18 10° NNW 02:53:31 51° W 02:57:30 11° S
Cosmos 1943 4.5 02:52:09 10° NW 02:56:03 20° W 02:57:52 17° SW
SL-16 R/B 4.1 02:54:31 14° WSW 02:56:17 15° W 02:59:45 10° NW
Landsat 5 3.6 02:52:49 10° SSE 02:56:50 77° ENE 03:01:02 10° NNW
Cosmos 1125 Rocket 3.6 02:54:00 17° SW 02:57:59 65° WNW 03:03:15 10° NNE
USA 215 3.6 02:51:37 10° ENE 02:58:06 60° SE 03:03:50 14° SW
IRS-1C 4.5 02:54:26 10° N 02:59:36 51° WNW 03:03:51 15° SW
Cosmos 1953 3.9 02:59:36 16° WSW 03:01:27 21° WNW 03:04:37 10° NNW
Cosmos 1892 4.4 03:00:07 10° N 03:03:43 36° ENE 03:07:15 10° SE
SL-24 R/B 4.3 02:58:56 10° S 03:04:13 75° WSW 03:08:47 10° NNW
Cosmos 1953 Rocket 3.7 03:00:35 10° NNW 03:05:00 59° W 03:09:23 10° S
CZ-4B R/B 3.8 03:03:05 10° SE 03:05:46 26° ENE 03:08:25 10° N
CZ-2D R/B 3.4 03:05:20 10° N 03:09:18 60° WNW 03:12:51 12° SSW
Cosmos 1709 Rocket 4.1 03:03:36 10° N 03:09:49 82° E 03:15:55 10° S
Resurs 1-4 Rocket 4.1 03:16:24 10° NNW 03:18:50 13° NW 03:21:17 10° W
USA 238 DEB 4.1 03:13:18 10° NW 03:20:30 77° NE 03:27:59 10° SE
USA 238 4.1 03:13:24 10° NW 03:20:36 76° NE 03:28:05 10° SE
Cosmos 1606 Rocket 4.2 03:19:25 11° SW 03:23:23 40° WNW 03:27:37 10° N
Atlas Centaur 2 4.3 03:20:57 10° SSW 03:24:42 16° S 03:28:49 10° SE
NOSS 2-2 (E) 3.2 03:22:45 12° SW 03:26:07 87° SE 03:30:16 10° NE
CENTAUR R/B 3.8 03:18:54 10° NW 03:26:41 64° NE 03:35:21 10° ESE
NOSS 2-2 (D) 3.3 03:23:29 10° SSW 03:27:00 71° SE 03:31:00 10° NE
IDEFIX/ARIANE 42P 2.9 03:23:14 10° N 03:28:18 53° WNW 03:33:21 10° SW
USA 267 3.3 03:25:06 10° SE 03:31:40 80° SW 03:38:15 10° WNW
Cosmos 2082 Rocket 4.1 03:26:56 10° NNW 03:32:05 35° NE 03:37:12 10° ESE
MSX 3.9 03:28:28 10° N 03:34:13 69° WNW 03:39:57 10° SSW
PSLV R/B 3.8 03:30:39 10° NNE 03:35:03 78° ESE 03:39:23 10° S
Meteor 2-15 Rocket 4.5 03:29:13 10° SSW 03:35:16 72° WNW 03:41:22 10° N
COSMOS 2406 3.5 03:31:13 10° NNW 03:36:57 75° ENE 03:42:36 10° SE
Cosmos 1726 Rocket 4.3 03:34:00 10° SW 03:38:06 35° WNW 03:42:15 10° N
Cosmos 1825 3.9 03:34:49 10° N 03:38:22 37° ENE 03:41:52 10° SE
Cosmos 2228 4.2 03:36:41 10° SW 03:40:27 27° WNW 03:44:15 10° N
Cosmos 2315 Rocket 4.1 03:35:48 10° SSW 03:42:08 81° W 03:48:35 10° N
ADEOS Rocket 4.0 03:34:41 10° SSE 03:42:25 74° ENE 03:50:05 10° NNW
Cosmos 2263 Rocket 3.9 03:39:56 10° W 03:43:53 19° NW 03:47:50 10° N
Cosmos 1844 3.9 03:38:18 10° SW 03:44:04 67° WNW 03:49:50 10° NNE
CZ-2C R/B 3.5 03:44:23 10° N 03:47:54 35° WNW 03:51:20 10° SW
Cosmos 2084 Rocket 3.8 03:44:26 10° NW 03:48:52 75° NE 03:53:23 10° SE
deb Chang Zheng 4 4.0 03:45:11 10° NNE 03:49:32 67° ESE 03:53:53 10° S
Cosmos 1455 3.0 03:46:25 10° S 03:50:12 55° E 03:54:00 10° NNE
ADEOS II 3.9 03:47:23 10° NNW 03:50:34 16° NW 03:53:44 10° W
